Terminal Aerodrome Forecast
Issued by NWS Melbourne, FL

Home | Current Version | Previous Version | Text Only | Print | Product List | Glossary On
Versions: 1 2 3 4 5 6 7 8 9 10 11 12
000
FTUS42 KMLB 300536
TAFVRB
TAF
KVRB 300536Z 3006/3106 12004KT P6SM SKC
     FM301500 19004KT P6SM SCT035
     FM301800 12012KT P6SM FEW050
     FM302200 12008KT P6SM SCT045 BKN100
     FM310100 17003KT P6SM FEW050 SCT250=

USA.gov is the U.S. government's official web portal to all federal, state and local government web resources and services.